| time (UTC) | temp C | wind direction | speed KPH | gust KPH | rain 1hr cm | rain 24hr cm | rain mn cm | humidity % | barometer mb |
| 20260508100012 | 14 | 148 | 1.6 | 8.0 | 0.00 | 6.45 | 0.00 | 58 | 1016.1 |
| 20260508094513 | 13 | 90 | 3.2 | 6.4 | 0.00 | 7.11 | 0.00 | 54 | 1016.1 |
| 20260508093013 | 13 | 117 | 1.6 | 6.4 | 0.00 | 7.80 | 0.00 | 52 | 1016.2 |
| 20260508091513 | 13 | 189 | 3.2 | 6.4 | 0.00 | 7.80 | 0.00 | 47 | 1016.3 |
| 20260508090012 | 12 | 173 | 3.2 | 9.7 | 0.00 | 7.80 | 0.00 | 40 | 1016.4 |
| 20260508084512 | 12 | 171 | 3.2 | 11.3 | 0.00 | 7.80 | 0.00 | 35 | 1016.0 |
| 20260508083013 | 11 | 208 | 4.8 | 11.3 | 0.00 | 7.80 | 0.00 | 28 | 1015.9 |
| 20260508081513 | 11 | 188 | 3.2 | 9.7 | 0.00 | 7.80 | 0.00 | 32 | 1015.7 |
| 20260508080012 | 11 | 171 | 3.2 | 9.7 | 0.00 | 7.80 | 0.00 | 29 | 1015.5 |
| 20260508074513 | 11 | 165 | 0.0 | 6.4 | 0.00 | 7.80 | 0.00 | 22 | 1015.8 |
| 20260508071512 | 8 | 109 | 0.0 | 1.6 | 0.00 | 7.80 | 0.00 | 1 | 1015.4 |
| 20260508070013 | 8 | 146 | 1.6 | 3.2 | 0.00 | 7.80 | 0.00 | 1 | 1015.4 |
| 20260508064512 | 8 | 169 | 0.0 | 3.2 | 0.00 | 7.80 | 0.00 | 6 | 1015.4 |
| 20260508063013 | 8 | 0 | 0.0 | 0.0 | 0.00 | 7.80 | 0.00 | 1 | 1015.1 |
| 20260508061513 | 7 | 0 | 0.0 | 0.0 | 0.00 | 7.80 | 0.00 | 1 | 1015.1 |
| 20260508060012 | 7 | 0 | 0.0 | 0.0 | 0.00 | 7.80 | 0.00 | 1 | 1014.9 |
| 20260508053012 | 7 | 133 | 0.0 | 1.6 | 0.00 | 7.80 | 0.00 | 1 | 1015.1 |
| 20260508051513 | 7 | 119 | 0.0 | 1.6 | 0.00 | 7.80 | 0.00 | 1 | 1014.8 |
| 20260508050012 | 7 | 90 | 0.0 | 1.6 | 0.00 | 7.80 | 0.00 | 1 | 1014.7 |
| 20260508044513 | 7 | 121 | 0.0 | 1.6 | 0.00 | 7.80 | 0.00 | 1 | 1014.6 |
| 20260508043012 | 7 | 132 | 1.6 | 6.4 | 0.00 | 7.80 | 0.00 | 1 | 1014.6 |
| 20260508041512 | 7 | 119 | 1.6 | 4.8 | 0.00 | 7.80 | 0.00 | 1 | 1014.5 |
| 20260508040013 | 7 | 102 | 3.2 | 9.7 | 0.00 | 7.80 | 0.00 | 1 | 1014.4 |
| 20260508031512 | 7 | 76 | 6.4 | 12.9 | 0.00 | 7.80 | 0.00 | 1 | 1014.0 |
| 20260508030013 | 7 | 88 | 4.8 | 9.7 | 0.00 | 7.80 | 0.00 | 1 | 1014.4 |
| 20260508024512 | 7 | 85 | 3.2 | 12.9 | 0.00 | 7.80 | 0.00 | 1 | 1014.3 |
| 20260508023012 | 7 | 87 | 4.8 | 11.3 | 0.00 | 7.80 | 0.00 | 1 | 1014.3 |
| 20260508021513 | 7 | 79 | 4.8 | 11.3 | 0.00 | 7.80 | 0.00 | 1 | 1014.2 |
| 20260508020012 | 7 | 83 | 6.4 | 12.9 | 0.00 | 7.80 | 0.00 | 1 | 1014.6 |
| 20260508014512 | 7 | 85 | 3.2 | 9.7 | 0.00 | 7.80 | 0.00 | 1 | 1014.5 |
| 20260508011512 | 7 | 83 | 4.8 | 9.7 | 0.00 | 7.80 | 0.00 | 1 | 1014.8 |
| 20260508010012 | 7 | 85 | 4.8 | 11.3 | 0.00 | 7.80 | 0.00 | 1 | 1015.1 |
| 20260508004513 | 7 | 75 | 8.0 | 14.5 | 0.00 | 7.80 | 0.00 | 1 | 1015.2 |
| 20260508003012 | 7 | 75 | 4.8 | 14.5 | 0.00 | 7.80 | 0.00 | 1 | 1015.3 |
| 20260508001512 | 7 | 80 | 4.8 | 9.7 | 0.00 | 7.80 | 0.00 | 1 | 1015.5 |
| 20260508000013 | 7 | 76 | 6.4 | 11.3 | 0.00 | 7.80 | 0.00 | 1 | 1015.7 |
| 20260507234513 | 7 | 73 | 3.2 | 11.3 | 0.00 | 7.80 | 0.00 | 1 | 1015.7 |
| 20260507233012 | 7 | 81 | 4.8 | 11.3 | 0.00 | 7.80 | 0.00 | 1 | 1015.9 |
| 20260507231513 | 7 | 80 | 3.2 | 11.3 | 0.00 | 7.80 | 0.00 | 1 | 1016.0 |
| 20260507223012 | 7 | 87 | 1.6 | 4.8 | 0.03 | 7.80 | 0.00 | 1 | 1016.3 |
| 20260507221513 | 7 | 86 | 3.2 | 8.0 | 0.03 | 7.80 | 0.00 | 1 | 1016.4 |
| 20260507220013 | 7 | 93 | 3.2 | 9.7 | 0.03 | 7.80 | 0.00 | 1 | 1016.4 |
| 20260507214513 | 7 | 98 | 4.8 | 14.5 | 0.00 | 7.77 | 7.77 | 1 | 1016.3 |
| 20260507213013 | 7 | 83 | 4.8 | 12.9 | 0.00 | 7.77 | 7.77 | 1 | 1016.3 |
| 20260507211513 | 8 | 89 | 6.4 | 14.5 | 0.00 | 7.77 | 7.77 | 1 | 1016.2 |
| 20260507210012 | 8 | 86 | 6.4 | 16.1 | 0.00 | 7.77 | 7.77 | 1 | 1015.9 |
| 20260507204513 | 8 | 83 | 4.8 | 12.9 | 0.00 | 7.77 | 7.77 | 1 | 1015.7 |
| 20260507201512 | 8 | 97 | 4.8 | 9.7 | 0.00 | 7.77 | 7.77 | 1 | 1015.5 |
| 20260507200013 | 8 | 99 | 3.2 | 9.7 | 0.00 | 7.77 | 7.77 | 1 | 1015.3 |
| 20260507194513 | 8 | 105 | 4.8 | 9.7 | 0.00 | 7.77 | 7.77 | 1 | 1015.0 |
| 20260507193013 | 8 | 117 | 3.2 | 6.4 | 0.00 | 7.77 | 7.77 | 1 | 1014.7 |
| 20260507191513 | 8 | 107 | 4.8 | 8.0 | 0.00 | 7.77 | 7.77 | 1 | 1014.3 |
| 20260507184513 | 9 | 110 | 6.4 | 17.7 | 0.00 | 7.77 | 7.77 | 1 | 1014.2 |
| 20260507183012 | 9 | 123 | 6.4 | 17.7 | 0.00 | 7.77 | 7.77 | 1 | 1014.0 |
| 20260507180013 | 9 | 100 | 9.7 | 20.9 | 0.00 | 7.77 | 7.77 | 1 | 1013.6 |
| 20260507174513 | 9 | 91 | 8.0 | 22.5 | 0.00 | 7.77 | 7.77 | 1 | 1013.9 |
| 20260507173012 | 8 | 76 | 8.0 | 20.9 | 0.00 | 7.77 | 7.77 | 1 | 1013.9 |
| 20260507171513 | 8 | 88 | 8.0 | 24.1 | 0.05 | 7.77 | 7.77 | 1 | 1014.0 |
| 20260507164512 | 8 | 101 | 4.8 | 14.5 | 0.41 | 7.77 | 7.77 | 1 | 1014.6 |
| 20260507163013 | 8 | 95 | 6.4 | 17.7 | 0.56 | 7.77 | 7.77 | 1 | 1014.6 |
| 20260507161513 | 8 | 91 | 1.6 | 8.0 | 0.74 | 7.75 | 7.75 | 1 | 1015.1 |
| 20260507160012 | 8 | 88 | 1.6 | 6.4 | 0.58 | 7.49 | 7.49 | 1 | 1015.6 |
| 20260507154513 | 8 | 118 | 6.4 | 11.3 | 0.51 | 7.39 | 7.39 | 1 | 1015.4 |
| 20260507153012 | 8 | 99 | 8.0 | 14.5 | 0.33 | 7.19 | 7.21 | 1 | 1015.1 |
| 20260507151513 | 9 | 94 | 11.3 | 24.1 | 0.10 | 6.99 | 6.99 | 1 | 1014.3 |
| 20260507150013 | 10 | 103 | 9.7 | 27.4 | 0.05 | 6.91 | 6.91 | 1 | 1014.3 |
| 20260507144513 | 11 | 97 | 8.0 | 20.9 | 0.00 | 6.88 | 6.88 | 27 | 1014.2 |
| 20260507143013 | 11 | 77 | 11.3 | 27.4 | 0.00 | 6.88 | 6.88 | 28 | 1014.1 |
| 20260507140013 | 11 | 71 | 14.5 | 27.4 | 0.03 | 6.88 | 6.88 | 35 | 1014.1 |
| 20260507131513 | 12 | 34 | 8.0 | 22.5 | 0.38 | 6.88 | 6.88 | 18 | 1014.1 |
| 20260507130013 | 11 | 12 | 6.4 | 14.5 | 0.51 | 6.86 | 6.86 | 15 | 1014.4 |
| 20260507124513 | 11 | 358 | 6.4 | 11.3 | 0.53 | 6.78 | 6.78 | 10 | 1014.4 |
| 20260507121512 | 9 | 11 | 1.6 | 8.0 | 0.97 | 6.50 | 6.50 | 1 | 1014.8 |
| 20260507120013 | 8 | 25 | 1.6 | 6.4 | 1.42 | 6.35 | 6.35 | 1 | 1015.1 |
| 20260507114512 | 7 | 341 | 1.6 | 6.4 | 1.91 | 6.25 | 6.25 | 1 | 1015.2 |
| 20260507113013 | 6 | 323 | 1.6 | 6.4 | 1.98 | 6.02 | 6.02 | 1 | 1015.4 |
| 20260507111512 | 5 | 353 | 0.0 | 1.6 | 2.90 | 5.51 | 5.51 | 1 | 1015.6 |
| 20260507110013 | 5 | 24 | 6.4 | 17.7 | 3.53 | 4.88 | 4.88 | 1 | 1015.5 |
| 20260507104513 | 6 | 30 | 3.2 | 14.5 | 3.53 | 4.34 | 4.34 | 1 | 1014.9 |
| 20260507103012 | 6 | 274 | 8.0 | 14.5 | 3.99 | 3.99 | 3.99 | 3 | 1015.5 |